Location: Nied?wied?
(53.3665°N, 14.8184°E)
Time: 17:42:37
(UTC+00:00)

ISS - Pass Details

Date: 15 May 2021
Orbit: 417 x 422 km, 51.6° (Epoch: 14 June)

Event Time Altitude Azimuth Distance (km) Brightness Sun altitude
Rises 23:14:50 0° 270° (W) 2,370 0.0 -17.4°
Reaches altitude 10° 23:16:57 10° 267° (W) 1,506 -1.0 -17.4°
Maximum altitude 23:20:18 64° 185° (S) 472 -3.9 -17.4°
Drops below altitude 10° 23:23:39 10° 104° (ESE) 1,508 -1.0 -17.3°
Sets 23:25:46 0° 101° (E) 2,373 0.0 -17.3°
